STARLINK-5676, 55464

Orbit data source: Space-Track

STARLINK-5676, 55464 is a payload satellite owned by SpaceX/Seattle (US) in LEO that was launched on Thu, 02 Feb 2023 UTC via an FALCON 9 launch vehicle from the Air Force Eastern Test Range (AFETR). Payload-class satellites include a variety of spacecraft equipped with specific instruments for various scientific and technological missions. These include communications satellites like Starlink; space stations such as the ISS; scientific satellites like the Hubble; Earth observation satellites from companies like Planet Labs, Umbra, and HawkEye 360; GPS; miniature CubeSats for education and research; and military/defense satellites.

Loading next visibility...
Identifier
55464, 2023-015R
Orbit
LEO
Country
Flag of USUS
Related business
Manufacturer
SpaceX/Seattle
Mission
Operational Commercial Communications
Bus & Motor
STARLINK, Unknown motor
Mass
305 kg wet, ~290 kg dry
Launch date (UTC)
2023-02-02 (3 years ago)
Launch vehicle
FALCON 9
Launch site
Air Force Eastern Test Range (AFETR)
Object type
Payload
Rocket body
Debris
Shape & HBR
Box + 1 Pan, 10.1 m
Radar Cross Section
13.562 m², Large (>1 m²)

Expand to show TLE details & history
Last TLE update: 10 hours ago

TLE from 10 hours ago
0 STARLINK-5676
1 55464U 23015R   25352.57357406 -.00000912  00000-0 -52474-4 0  9999
2 55464  43.0052  46.6138 0001387 275.4371  84.6313 15.02532908158550
Epoch: 2025-12-18T13:45Z
TLE epoch observation values (Epoch: 2025-12-18T13:45:56.798Z)
Latitude
-0.00004°
Longitude
112.69996°
Altitude
558.778 km
Speed
7.584 km/s
True Right ascension
03h 06m 27s
True Declination
0° 00' 00"
Sunlit
Object was in full shadow at epoch
Visualization orbit readout
Latitude
Unknown
Longitude
Unknown
Altitude
Unknown
Speed
Unknown
Apparent Right ascension
Unknown
Apparent Declination
Unknown
Sunlit
N/A
Visualization observer readout
Local Sidereal Time
22:27:45
Azimuth
Unknown
Elevation
Unknown
Doppler factor
Unknown
Orbital elements
Apogee altitude
561.975 km
Perigee altitude
560.05 km
Semi-major axis
6,939.149 km
Eccentricity
0.00014
Inclination
43.0052°
RAAN
46.6138°
Arg. of periapsis
275.4371°
True anomaly
84.64712°
Mean anomaly
84.6313°
Eccentric anomaly
84.63921°
Mean motion
3.75477 °/min
Orbital period
95.88 mins
BSTAR
-0.000052474
Loading maneuver chart data...
Computing Atmospheric mass density...
Loading historical data...
Loading historical data...
Loading historical data...
Loading historical data...
Loading historical data...
Loading historical data...
Loading historical data...

Documentation

Showing up to 5 results
|